Content
SEND FEEDBACK

Daily
Averages
Monthly
Summary
United States of America

ST. LOUIS - SAINT LOUIS UNIVERSITY, MISSOURI


Home > North America > United States > Missouri
Elevation: 580 feet     Latitude: 38 38N     Longitude: 090 14W

WEATHER
 
SELECT A DAY
Number of Records: 186,223;   Date Range: 1/1/95 - 8/12/14
 
SHARE

PRINT THIS DATA

[ ← Previous Day ]
WEATHER ALMANAC - MAY 9, 2013
[ Next Day → ]
[ °C ]   °F
Weather ElementAverageHighLow
Temperature69.1 °F77 °F (4:53 pm)64 °F (1:53 am)
Dewpoint59.9 °F66 °F (2:53 pm)55.9 °F (7:53 pm)
Humidity73.2 %94 % (12:18 pm)50 % (5:53 pm)
Barometer29.91 in29.97 in (1:53 am)29.83 in (6:53 pm)
Wind Speed5.1 mph16.1 mph (11:42 am)
Wind Gust29.9 mph (11:42 am)
Weather ElementAverage
Visibility8.7 mi
Wind DirectionESE (128.1 °)

Weather ElementTotal
Precipitation0.45 in
Cooling Degree Days5.5 (Base 65)
Growing Degree Days20.5 (Base 50)
Averaged from 26 records on May 9, 2013
WEATHER CONDITIONS BREAKOUT
WIND DIRECTION BREAKOUT
WEATHER BY HOUR - MAY 9, 2013
[ °C ]   °F
Local TimeTemperatureDewpointHumidityBarometerVisibilityWind DirectionWind SpeedGust SpeedPrecipitationEventsConditions
1:53 AM64.0 °F59.0 °F84 %29.97 in10.0 miCalmOvercast
2:53 AM64.0 °F57.9 °F80 %29.96 in10.0 miCalmScattered Clouds
3:53 AM64.0 °F57.9 °F80 %29.95 in10.0 miCalmOvercast
4:53 AM64.0 °F57.0 °F78 %29.94 in10.0 miSSE (160°)4.6 mphPartly Cloudy
5:53 AM64.0 °F57.0 °F78 %29.94 in10.0 miSSE (150°)3.5 mphMostly Cloudy
6:53 AM64.9 °F57.9 °F78 %29.94 in10.0 miSE (130°)3.5 mphMostly Cloudy
7:53 AM64.9 °F57.9 °F78 %29.93 in10.0 miSSE (160°)4.6 mphMostly Cloudy
8:53 AM69.1 °F59.0 °F70 %29.93 in10.0 miSouth (170°)3.5 mphMostly Cloudy
9:53 AM72.0 °F59.0 °F64 %29.92 in10.0 miSouth (190°)9.2 mphMostly Cloudy
10:53 AM72.0 °F60.1 °F66 %29.93 in10.0 miSSW (200°)6.9 mphOvercast
11:42 AM69.8 °F60.8 °F73 %29.96 in2.5 miSSW (200°)16.1 mph29.9 mph0.07 inRain-ThunderstormRain
11:49 AM66.2 °F60.8 °F83 %29.97 in1.2 miSW (220°)8.1 mph29.9 mph0.17 inRain-ThunderstormHeavy Rain
11:53 AM64.9 °F61.0 °F87 %29.96 in1.2 miSSW (210°)8.1 mph24.2 mph0.17 inRain-ThunderstormLight Rain
12:18 PM64.4 °F62.6 °F94 %29.92 in1.2 miCalm0.04 inRainLight Rain
1:53 PM70.0 °F64.0 °F81 %29.89 in10.0 miSSE (160°)6.9 mphMostly Cloudy
2:53 PM75.0 °F66.0 °F73 %29.86 in10.0 miSSE (160°)8.1 mphScattered Clouds
3:09 PM73.4 °F62.6 °F69 %29.86 in10.0 miSouth (190°)5.8 mphThunderstormMostly Cloudy
3:25 PM73.4 °F62.6 °F69 %29.86 in10.0 miSW (220°)9.2 mphOvercast
3:53 PM75.9 °F62.1 °F62 %29.85 in10.0 miWest (270°)10.4 mph16.1 mphOvercast
4:53 PM77.0 °F61.0 °F58 %29.84 in10.0 miWest (280°)10.4 mph17.3 mphPartly Cloudy
5:53 PM77.0 °F57.0 °F50 %29.85 in10.0 miWest (260°)9.2 mph21.9 mphMostly Cloudy
6:53 PM75.0 °F57.0 °F53 %29.83 in10.0 miVariable4.6 mphMostly Cloudy
7:53 PM73.0 °F55.9 °F55 %29.86 in10.0 miCalmScattered Clouds
8:53 PM66.9 °F60.1 °F79 %29.87 in10.0 miCalmOvercast
9:53 PM66.9 °F60.1 °F79 %29.88 in10.0 miCalmOvercast
10:53 PM66.0 °F60.1 °F81 %29.88 in10.0 miCalmOvercast
Hourly data recorded from KCPS, located miles away from St. Louis - Saint Louis University, Missouri







STORIES FROM OUR PARTNERS